COSMOS 1626 (15494 NORAD) Tracking and Keplerian Element Data

This shows tracking and keplerian element data for the satellite.

Feedback or suggestion? Click here.




ElementValue
Catalog15494
NameCOSMOS 1626
Epoch Orbit13497
Epoch Day12.99378609
Epoch Year2024
RAAN353.0793
Inclination82.4714
Eccentricity0.0001611
Argument of Perigee107.0907
Mean Anonmoly253.0516
Mean Motion15.42952254
Decay Rate0.00028809
L11 15494U 85009A 24012.99378609 .00028809 00000+0 65276-3 0 9990
L22 15494 82.4714 353.0793 0001611 107.0907 253.0516 15.42952254134979



Live tracking and technical data element details for COSMOS 1626 (NORAD 15494). COSMOS 1626 can be tracked NOW for your location showing map with azimuth and elevation plus other details from your city location.







IsCatalogInMostPopularTable: catalog: 15494, numindb: 465
Update: records affected: 1



GetName: 15494 COSMOS 1626

Hit Count: updated at: Fri, 19 Apr 2024 12:14:01 GMT